W5ZYX Weather Reports


Display with metric or nautical units.
time (UTC)temp
F
wind
direction
speed
MPH
gust
MPH
rain 1hr
in
rain 24hr
in
rain mn
in
humidity
%
barometer
mb
20260903121555 78 137 1.0 4.0 0.24 0.52 0.24 93 1015.3
20260903121039 78 176 0.0 3.0 0.22 0.51 0.22 92 1015.2
20260903120538 78 176 1.0 4.0 0.18 0.47 0.18 92 1015.2
20260903120121 78 81 1.0 4.0 0.11 0.40 0.11 92 1015.2
20260903115536 78 0 0.0 4.0 0.00 0.29 0.00 92 1015.3
20260903115039 78 0 1.0 4.0 0.00 0.29 0.00 92 1015.1
20260903114603 78 0 0.0 4.0 0.00 0.29 0.00 92 1015.1
20260903114040 78 0 0.0 0.0 0.00 0.29 0.00 93 1015.0
20260903113539 78 0 0.0 4.0 0.00 0.29 0.00 93 1015.0
20260903113059 77 0 0.0 4.0 0.00 0.29 0.00 93 1015.0
20260903112538 77 169 1.0 4.0 0.00 0.29 0.00 93 1015.0
20260903112037 77 169 0.0 4.0 0.00 0.29 0.00 93 1014.9
20260903111604 77 169 1.0 4.0 0.00 0.29 0.00 93 1014.9
20260903111037 77 0 1.0 8.0 0.00 0.29 0.00 94 1014.8
20260903110541 77 169 3.0 8.0 0.00 0.29 0.00 94 1014.8
20260903110100 77 0 0.0 6.0 0.00 0.29 0.00 94 1014.7
20260903105541 77 72 2.0 7.0 0.00 0.29 0.00 94 1014.6
20260903105040 77 48 3.0 7.0 0.00 0.29 0.00 94 1014.4
20260903104551 77 71 2.0 5.0 0.00 0.29 0.00 93 1014.4
20260903104037 77 71 1.0 4.0 0.00 0.29 0.00 93 1014.4
20260903103537 77 0 2.0 4.0 0.00 0.29 0.00 93 1014.3
20260903103100 77 71 1.0 5.0 0.00 0.29 0.00 93 1014.2
20260903102535 77 71 1.0 5.0 0.00 0.29 0.00 93 1014.2
20260903102036 77 71 1.0 5.0 0.00 0.29 0.00 93 1014.3
20260903101558 77 71 1.0 4.0 0.00 0.29 0.00 93 1014.2
20260903101037 77 0 0.0 0.0 0.00 0.29 0.00 93 1014.1
20260903100537 77 0 0.0 0.0 0.00 0.29 0.00 93 1014.0
20260903095536 77 0 0.0 0.0 0.00 0.29 0.00 93 1014.1
20260903095038 77 0 0.0 1.0 0.00 0.29 0.00 93 1014.0
20260903094608 77 0 0.0 3.0 0.00 0.29 0.00 93 1013.9
20260903094036 77 147 0.0 3.0 0.00 0.29 0.00 93 1013.9
20260903093535 77 0 0.0 0.0 0.00 0.29 0.00 93 1014.1
20260903093058 77 0 0.0 0.0 0.00 0.29 0.00 93 1014.1
20260903092536 77 0 0.0 0.0 0.00 0.29 0.00 92 1014.0
20260903092036 77 0 0.0 0.0 0.00 0.29 0.00 92 1014.1
20260903091602 77 0 0.0 0.0 0.00 0.29 0.00 92 1014.0
20260903091037 77 0 0.0 0.0 0.00 0.29 0.00 92 1014.0
20260903090537 77 0 0.0 0.0 0.00 0.29 0.00 92 1014.0
20260903085538 77 0 0.0 0.0 0.00 0.29 0.00 92 1014.0
20260903085037 77 0 0.0 0.0 0.00 0.29 0.00 92 1014.0
20260903084553 77 0 0.0 0.0 0.00 0.29 0.00 91 1014.1
20260903084036 77 0 0.0 0.0 0.00 0.29 0.00 91 1014.0
20260903083536 77 0 0.0 0.0 0.00 0.29 0.00 91 1013.9
20260903083115 77 0 0.0 3.0 0.00 0.29 0.00 91 1013.9
20260903082536 77 0 0.0 5.0 0.00 0.29 0.00 91 1013.9
20260903082036 77 147 2.0 5.0 0.00 0.29 0.00 91 1013.9
20260903081606 77 147 1.0 4.0 0.00 0.29 0.00 91 1013.9
20260903081035 77 147 1.0 5.0 0.00 0.29 0.00 91 1013.8
20260903080539 77 147 2.0 7.0 0.00 0.29 0.00 90 1013.8
20260903080055 77 155 3.0 7.0 0.00 0.29 0.00 90 1013.8
20260903075537 77 150 3.0 6.0 0.00 0.29 0.00 90 1013.9
20260903075037 77 164 2.0 6.0 0.00 0.29 0.00 89 1013.9
20260903074610 77 127 2.0 6.0 0.00 0.29 0.00 89 1013.9
20260903074039 77 154 1.0 6.0 0.00 0.29 0.00 89 1013.9
20260903073539 77 154 1.0 6.0 0.00 0.29 0.00 88 1013.9
20260903073136 77 154 1.0 5.0 0.00 0.29 0.00 88 1013.9
20260903072539 77 184 3.0 6.0 0.00 0.29 0.00 88 1013.8
20260903072039 77 138 3.0 6.0 0.00 0.29 0.00 88 1013.8
20260903071617 77 158 3.0 6.0 0.00 0.29 0.00 88 1013.7
20260903071036 77 158 3.0 7.0 0.00 0.29 0.00 88 1013.7
20260903070537 77 174 3.0 7.0 0.00 0.29 0.00 88 1013.8
20260903070106 77 153 2.0 9.0 0.00 0.29 0.00 88 1013.7
20260903065537 77 155 3.0 9.0 0.00 0.29 0.00 88 1013.6
20260903065040 77 161 3.0 7.0 0.00 0.29 0.00 88 1013.6
20260903064603 77 155 2.0 7.0 0.00 0.29 0.00 88 1013.6
20260903064038 77 157 3.0 8.0 0.00 0.29 0.00 88 1013.6
20260903063538 77 157 4.0 8.0 0.00 0.29 0.00 88 1013.7
20260903063100 77 161 3.0 9.0 0.00 0.29 0.00 88 1013.7
20260903062541 77 168 4.0 9.0 0.00 0.29 0.00 88 1013.6
20260903062040 77 166 4.0 8.0 0.00 0.29 0.00 88 1013.6
20260903061600 77 163 4.0 8.0 0.00 0.29 0.00 89 1013.7
20260903061036 77 148 3.0 7.0 0.00 0.29 0.00 89 1013.8
20260903060540 77 155 3.0 7.0 0.00 0.29 0.00 89 1013.9
20260903060144 77 177 3.0 7.0 0.00 0.29 0.00 89 1013.9
20260903055538 77 185 2.0 7.0 0.00 0.29 0.00 90 1013.9
20260903055039 77 161 3.0 9.0 0.00 0.29 0.00 90 1014.1
20260903054559 77 163 3.0 9.0 0.00 0.29 0.00 90 1014.1
20260903054039 77 155 4.0 9.0 0.00 0.29 0.00 90 1014.1
20260903053539 77 145 3.0 8.0 0.00 0.29 0.00 91 1014.2
20260903053058 77 153 4.0 12.0 0.00 0.29 0.00 91 1014.2
20260903052538 78 161 5.0 14.0 0.00 0.29 0.00 91 1014.3
20260903052038 78 179 6.0 15.0 0.00 0.29 0.00 91 1014.2
20260903051602 78 157 6.0 15.0 0.00 0.29 0.00 91 1014.3
20260903051038 78 169 6.0 15.0 0.00 0.29 0.00 91 1014.3
20260903050539 78 161 6.0 15.0 0.00 0.29 0.00 91 1014.4
20260903050105 78 109 5.0 14.0 0.00 0.29 0.00 91 1014.4
20260903045539 78 150 5.0 14.0 0.00 0.29 0.29 91 1014.5
20260903045039 78 165 3.0 8.0 0.00 0.29 0.29 91 1014.3
20260903044604 78 0 2.0 7.0 0.00 0.29 0.29 91 1014.3
20260903044039 78 173 3.0 8.0 0.00 0.29 0.29 91 1014.2
20260903043540 78 128 4.0 10.0 0.00 0.29 0.29 91 1014.2
20260903043055 78 176 3.0 10.0 0.00 0.29 0.29 91 1014.2
20260903042628 78 175 4.0 11.0 0.00 0.29 0.29 91 1014.2
20260903042036 78 140 6.0 12.0 0.00 0.29 0.29 90 1014.3
20260903041556 78 161 6.0 12.0 0.00 0.29 0.29 90 1014.3
20260903041034 78 148 7.0 13.0 0.00 0.29 0.29 90 1014.4
20260903040536 78 174 6.0 13.0 0.00 0.29 0.29 90 1014.6
20260903040112 78 161 4.0 12.0 0.00 0.29 0.29 90 1014.7
20260903035535 78 169 6.0 12.0 0.00 0.29 0.29 90 1014.8
20260903035035 78 144 6.0 12.0 0.00 0.29 0.29 90 1014.5
20260903034559 78 144 7.0 12.0 0.00 0.29 0.29 90 1014.4
20260903034034 78 136 5.0 10.0 0.00 0.29 0.29 90 1014.5
20260903033536 78 164 6.0 10.0 0.00 0.29 0.29 90 1014.4
20260903033055 78 161 5.0 15.0 0.00 0.29 0.29 89 1014.6
20260903032537 78 163 7.0 15.0 0.00 0.29 0.29 89 1014.3
20260903032036 78 155 6.0 12.0 0.00 0.29 0.29 89 1014.2
20260903031552 78 173 5.0 11.0 0.00 0.29 0.29 89 1014.2
20260903031035 78 104 5.0 9.0 0.00 0.29 0.29 89 1014.2
20260903030535 78 163 5.0 10.0 0.00 0.29 0.29 89 1014.2
20260903030051 78 146 5.0 10.0 0.00 0.29 0.29 89 1014.2
20260903025535 78 167 4.0 10.0 0.00 0.29 0.29 89 1014.2
20260903025035 78 140 5.0 10.0 0.00 0.29 0.29 89 1014.1
20260903024558 78 142 4.0 10.0 0.00 0.29 0.29 89 1014.0
20260903024036 78 149 4.0 10.0 0.00 0.29 0.29 89 1014.0
20260903023536 78 181 3.0 7.0 0.00 0.29 0.29 90 1013.9
20260903023101 78 140 2.0 7.0 0.00 0.29 0.29 90 1013.8
20260903022535 78 154 3.0 7.0 0.00 0.29 0.29 90 1013.7
20260903022036 78 170 3.0 7.0 0.00 0.29 0.29 90 1013.7
20260903021606 78 148 2.0 6.0 0.00 0.29 0.29 90 1013.7
20260903021035 78 148 2.0 7.0 0.00 0.29 0.29 90 1013.6
20260903020538 78 148 2.0 7.0 0.00 0.29 0.29 90 1013.4
20260903020104 78 165 3.0 7.0 0.00 0.29 0.29 90 1013.3
20260903015535 78 158 3.0 9.0 0.00 0.29 0.29 90 1013.1
20260903015036 78 106 4.0 9.0 0.00 0.29 0.29 90 1013.1
20260903014605 78 106 4.0 11.0 0.00 0.29 0.29 90 1013.1
20260903014035 78 136 4.0 11.0 0.00 0.29 0.29 90 1013.0
20260903013535 78 137 4.0 9.0 0.00 0.29 0.29 90 1012.8
20260903013107 78 136 2.0 9.0 0.00 0.29 0.29 90 1012.9
20260903012535 78 127 3.0 9.0 0.00 0.29 0.29 90 1012.9
20260903012037 78 114 4.0 9.0 0.00 0.29 0.29 90 1012.9
20260903011601 78 167 4.0 10.0 0.00 0.29 0.29 90 1012.9
20260903011040 78 143 4.0 10.0 0.00 0.29 0.29 90 1013.0
20260903010538 79 112 4.0 11.0 0.00 0.29 0.29 90 1012.9
20260903005538 79 145 5.0 11.0 0.00 0.29 0.29 90 1012.8
20260903005038 79 136 6.0 12.0 0.00 0.29 0.29 90 1012.7
20260903004556 79 145 7.0 12.0 0.00 0.29 0.29 89 1012.7
20260903004038 79 137 5.0 10.0 0.00 0.29 0.29 89 1012.7
20260903003540 79 101 4.0 9.0 0.00 0.29 0.29 89 1012.5
20260903003110 79 142 3.0 7.0 0.00 0.29 0.29 89 1012.4
20260903002539 79 150 4.0 9.0 0.00 0.29 0.29 89 1012.3
20260903002038 79 133 5.0 9.0 0.00 0.29 0.29 89 1012.3
20260903001620 79 154 5.0 11.0 0.00 0.29 0.29 90 1012.3
20260903001038 79 147 5.0 11.0 0.00 0.29 0.29 90 1012.2
20260903000539 78 169 4.0 9.0 0.00 0.29 0.29 90 1012.4
20260903000100 78 159 4.0 9.0 0.00 0.29 0.29 91 1012.5
20260902235539 78 143 4.0 9.0 0.00 0.29 0.29 91 1012.7
20260902235039 78 115 2.0 7.0 0.00 0.29 0.29 91 1012.8
20260902234624 78 114 2.0 9.0 0.00 0.29 0.29 91 1013.0
20260902234038 78 113 2.0 9.0 0.00 0.29 0.29 91 1013.2
20260902233539 78 123 4.0 8.0 0.00 0.29 0.29 92 1013.2
20260902233054 78 151 3.0 7.0 0.00 0.29 0.29 92 1013.2
20260902232535 78 128 2.0 7.0 0.00 0.29 0.29 92 1013.3
20260902232039 78 0 2.0 7.0 0.00 0.29 0.29 92 1013.3
20260902231609 78 87 2.0 6.0 0.00 0.29 0.29 92 1013.2
20260902231039 78 134 2.0 9.0 0.00 0.29 0.29 92 1013.2
20260902230538 78 69 1.0 9.0 0.00 0.29 0.29 92 1013.3
20260902230114 78 77 3.0 9.0 0.00 0.29 0.29 92 1013.1
20260902225538 78 94 3.0 9.0 0.00 0.29 0.29 92 1013.1
20260902225037 78 143 2.0 14.0 0.00 0.29 0.29 92 1013.0
20260902224605 78 115 5.0 14.0 0.00 0.29 0.29 92 1012.9
20260902224038 78 134 5.0 14.0 0.00 0.29 0.29 91 1012.8
20260902223539 79 111 3.0 11.0 0.00 0.29 0.29 92 1012.7
20260902223057 79 107 5.0 11.0 0.00 0.29 0.29 91 1012.7
20260902222539 79 115 4.0 9.0 0.00 0.29 0.29 91 1012.6
20260902222039 80 114 2.0 7.0 0.00 0.29 0.29 92 1012.5
20260902221554 79 38 3.0 7.0 0.01 0.29 0.29 92 1012.5
20260902221035 79 140 2.0 7.0 0.01 0.29 0.29 92 1012.4
20260902220536 79 134 2.0 4.0 0.01 0.29 0.29 92 1012.4
20260902220104 79 92 1.0 5.0 0.02 0.29 0.29 92 1012.5
20260902215536 79 76 2.0 5.0 0.02 0.29 0.29 92 1012.5
20260902215035 79 128 1.0 4.0 0.02 0.29 0.29 92 1012.4
20260902214613 79 128 2.0 5.0 0.02 0.29 0.29 92 1012.4
20260902214037 79 128 1.0 5.0 0.02 0.29 0.29 92 1012.3
20260902213535 78 128 3.0 5.0 0.03 0.29 0.29 92 1012.3
20260902213056 79 144 2.0 4.0 0.03 0.29 0.29 92 1012.4
20260902212536 78 144 2.0 4.0 0.10 0.29 0.29 91 1012.4
20260902212036 78 56 0.0 5.0 0.25 0.29 0.29 91 1012.5
20260902211555 78 56 1.0 5.0 0.24 0.28 0.28 90 1012.5
20260902211039 78 84 1.0 4.0 0.25 0.28 0.28 90 1012.6
20260902210535 78 84 1.0 5.0 0.28 0.28 0.28 89 1012.6
20260902210058 78 92 1.0 7.0 0.27 0.27 0.27 89 1012.8
20260902205537 79 54 3.0 7.0 0.27 0.27 0.27 89 1012.7
20260902205037 79 60 4.0 7.0 0.27 0.27 0.27 89 1012.8
20260902204601 79 74 2.0 7.0 0.27 0.27 0.27 88 1012.8
20260902204037 79 57 3.0 7.0 0.27 0.27 0.27 87 1012.7
20260902203538 79 62 1.0 7.0 0.26 0.26 0.26 87 1012.8
20260902203055 80 45 3.0 9.0 0.25 0.25 0.25 86 1013.1
20260902202536 81 317 3.0 9.0 0.18 0.18 0.18 84 1013.5
20260902202039 81 311 4.0 9.0 0.04 0.04 0.04 83 1013.4
20260902201603 82 33 5.0 10.0 0.04 0.04 0.04 81 1012.9
20260902201040 83 47 7.0 10.0 0.02 0.02 0.02 78 1013.0
20260902200536 84 67 4.0 8.0 0.00 0.00 0.00 77 1013.1
20260902200058 84 104 4.0 8.0 0.00 0.00 0.00 76 1012.9
20260902195536 84 121 2.0 10.0 0.00 0.00 0.00 77 1013.0
20260902195036 83 63 4.0 11.0 0.00 0.00 0.00 77 1013.0
20260902194600 83 39 7.0 11.0 0.00 0.00 0.00 77 1013.0
20260902194036 83 25 8.0 13.0 0.00 0.00 0.00 77 1013.1
20260902193536 83 22 9.0 15.0 0.00 0.00 0.00 77 1013.1
20260902193103 84 44 9.0 15.0 0.00 0.00 0.00 76 1013.1
20260902192535 84 5 9.0 16.0 0.00 0.00 0.00 75 1013.2
20260902192036 85 19 10.0 16.0 0.00 0.00 0.00 75 1013.3
20260902191600 85 16 10.0 15.0 0.00 0.00 0.00 74 1013.3
20260902191038 85 40 11.0 17.0 0.00 0.00 0.00 74 1013.2
20260902190535 86 30 10.0 17.0 0.00 0.00 0.00 72 1013.1
20260902190101 87 23 11.0 17.0 0.00 0.00 0.00 69 1013.1
20260902185536 90 5 12.0 17.0 0.00 0.00 0.00 65 1013.2
20260902185036 92 277 5.0 14.0 0.00 0.00 0.00 58 1013.2
20260902184600 91 282 6.0 17.0 0.00 0.00 0.00 58 1013.3
20260902184035 91 268 6.0 17.0 0.00 0.00 0.00 59 1013.2
20260902183538 91 236 8.0 15.0 0.00 0.00 0.00 58 1013.3
20260902183101 91 322 7.0 15.0 0.00 0.00 0.00 60 1013.2
20260902182535 91 231 7.0 15.0 0.00 0.00 0.00 60 1013.2
20260902182037 91 247 8.0 16.0 0.00 0.00 0.00 60 1013.3
20260902181558 91 279 6.0 16.0 0.00 0.00 0.00 60 1013.4
20260902181037 91 202 4.0 11.0 0.00 0.00 0.00 63 1013.5
20260902180537 91 260 4.0 9.0 0.00 0.00 0.00 64 1013.6
20260902175537 89 242 4.0 10.0 0.00 0.00 0.00 66 1013.9
20260902175040 89 250 4.0 13.0 0.00 0.00 0.00 66 1014.1
20260902174607 89 236 6.0 13.0 0.00 0.00 0.00 66 1014.1
20260902174037 88 256 5.0 13.0 0.00 0.00 0.00 66 1014.3
20260902173536 88 134 6.0 13.0 0.00 0.00 0.00 66 1014.3
20260902173101 88 254 8.0 13.0 0.00 0.00 0.00 66 1014.3
20260902172536 88 309 5.0 14.0 0.00 0.00 0.00 67 1014.4
20260902172037 88 306 6.0 14.0 0.00 0.00 0.00 67 1014.5
20260902171607 87 289 6.0 13.0 0.00 0.00 0.00 68 1014.7
20260902171038 87 311 7.0 12.0 0.00 0.00 0.00 68 1014.9
20260902170537 86 302 5.0 11.0 0.00 0.00 0.00 69 1015.0
20260902170057 86 303 3.0 11.0 0.00 0.00 0.00 70 1015.0
20260902165538 86 314 6.0 12.0 0.00 0.00 0.00 70 1015.0
20260902165036 86 263 6.0 12.0 0.00 0.00 0.00 70 1015.0
20260902164555 85 294 5.0 13.0 0.00 0.00 0.00 70 1015.1
20260902164036 85 294 6.0 13.0 0.00 0.00 0.00 70 1015.1
20260902163537 85 259 7.0 13.0 0.00 0.00 0.00 69 1015.0
20260902163106 85 305 5.0 11.0 0.00 0.00 0.00 70 1015.1
20260902162538 85 284 3.0 12.0 0.00 0.00 0.00 72 1015.0
20260902162037 85 283 5.0 12.0 0.00 0.00 0.00 72 1015.0
20260902161604 85 258 5.0 12.0 0.00 0.00 0.00 73 1015.0
20260902161036 84 277 4.0 14.0 0.00 0.00 0.00 73 1015.1
20260902160538 84 252 7.0 14.0 0.00 0.00 0.00 73 1015.1
20260902160056 84 315 5.0 13.0 0.00 0.00 0.00 74 1015.2
20260902155537 84 294 6.0 13.0 0.00 0.00 0.00 74 1015.2
20260902155037 84 263 8.0 13.0 0.00 0.00 0.00 75 1015.1
20260902154600 84 296 6.0 14.0 0.00 0.00 0.00 75 1015.1
20260902154036 84 319 7.0 14.0 0.00 0.00 0.00 76 1015.0
20260902153536 84 325 7.0 14.0 0.00 0.00 0.00 76 1015.0
20260902153050 83 325 7.0 14.0 0.00 0.00 0.00 77 1014.9
20260902152537 83 305 7.0 14.0 0.00 0.00 0.00 78 1014.9
20260902152036 82 305 6.0 12.0 0.00 0.00 0.00 78 1015.0
20260902151556 82 317 4.0 11.0 0.00 0.00 0.00 79 1015.1
20260902151036 82 305 6.0 13.0 0.00 0.00 0.00 79 1015.0
20260902150535 82 294 6.0 13.0 0.00 0.00 0.00 80 1015.0
20260902150056 81 323 4.0 11.0 0.00 0.00 0.00 81 1015.0
20260902145536 81 324 6.0 11.0 0.00 0.00 0.00 81 1015.0
20260902145037 81 310 4.0 10.0 0.00 0.00 0.00 81 1015.0
20260902144616 80 276 5.0 10.0 0.00 0.00 0.00 81 1015.0
20260902144035 80 281 4.0 9.0 0.00 0.00 0.00 81 1015.0
20260902143536 80 281 4.0 10.0 0.00 0.00 0.00 82 1015.0
20260902143111 80 280 4.0 10.0 0.00 0.00 0.00 82 1014.9
20260902142535 80 284 4.0 12.0 0.00 0.00 0.00 82 1014.9
20260902142036 80 230 3.0 12.0 0.00 0.00 0.00 83 1014.8
20260902141557 79 288 3.0 9.0 0.00 0.00 0.00 83 1014.8
20260902141035 79 263 4.0 9.0 0.00 0.00 0.00 84 1014.7
20260902140536 79 250 3.0 9.0 0.00 0.00 0.00 84 1014.8
20260902140055 78 264 3.0 9.0 0.00 0.00 0.00 84 1014.8
20260902135536 78 282 4.0 8.0 0.00 0.00 0.00 85 1014.8
20260902135036 78 262 3.0 7.0 0.00 0.00 0.00 85 1014.8
20260902134602 78 254 2.0 7.0 0.00 0.00 0.00 85 1014.8
20260902134035 78 261 2.0 7.0 0.00 0.00 0.00 85 1014.7
20260902133535 78 290 3.0 8.0 0.00 0.00 0.00 85 1014.8
20260902133100 78 298 3.0 11.0 0.00 0.00 0.00 84 1014.8
20260902132538 79 284 3.0 11.0 0.00 0.00 0.00 84 1014.8
20260902132036 79 329 6.0 11.0 0.00 0.00 0.00 83 1014.8
20260902131559 79 308 5.0 11.0 0.00 0.00 0.00 83 1014.8
20260902131036 79 336 6.0 11.0 0.00 0.00 0.00 83 1014.8
20260902130535 78 355 7.0 12.0 0.00 0.00 0.00 83 1014.7
20260902130054 78 319 7.0 13.0 0.00 0.00 0.00 83 1014.7
20260902125536 78 321 6.0 13.0 0.00 0.00 0.00 83 1014.6
20260902125038 78 312 7.0 12.0 0.00 0.00 0.00 84 1014.6
20260902124554 78 348 6.0 9.0 0.00 0.00 0.00 84 1014.6
20260902124035 78 302 5.0 11.0 0.00 0.00 0.00 84 1014.5
20260902123538 78 336 6.0 11.0 0.00 0.00 0.00 84 1014.3
20260902123101 78 292 5.0 11.0 0.00 0.00 0.00 84 1014.3
20260902122536 78 319 5.0 11.0 0.00 0.00 0.00 84 1014.2
20260902122037 78 323 4.0 12.0 0.00 0.00 0.00 84 1014.2